Location: Buckland
(65.9785°N, 161.1281°W)
Time: 22:08:35
(UTC+00:00)

PRISM - Pass Details

Date: 24 January 2021
Orbit: 565 x 584 km, 98.2° (Epoch: 06 March)

Event Time Altitude Azimuth Distance (km) Brightness Sun altitude
Rises 16:28:24 0° 25° (NNE) 2,788 ? -20.2°
Reaches altitude 10° 16:30:59 10° 8° (N) 1,890 ? -19.9°
Enters shadow 16:32:52 18° 343° (NNW) 1,448 ? -19.7°
